Шомон

Франция     48°06′34″N   5°08′11″E
темп.,
°C
ветер,
м/с
пор.,
м/с
влажн.,
%
обл.,
%
осадки,
мм/ч
давл.,
гПа
погр.,
м
23 октября, сб
сб2323:00+8з1169100 0.0 102624
02:00+7сз2275100 0.0 102735
05:00+7ссз2272100 0.0 102751
08:00+7в116592 0.0 102610
11:00+10всв23585 0.0 1027458
14:00+12св44535 0.0 10271229
17:00+11всв456316 0.0 1026936
20:00+6всв378693 0.0 1027109
24 октября, вс
вс2423:00+5вюв22870 0.0 102612
02:00+4всв22860 0.0 102612
05:00+3вюв38900 0.0 1025143
08:00+2юв35940 0.0 102590
11:00+8ююв58720 0.0 1025289
14:00+13ю56570 0.0 1024521
17:00+13ююв35640 0.0 1022180
20:00+7ю33780 0.0 102426
25 октября, пн
пн2523:00+7ю22750 0.0 102412
02:00+6ююв33760 0.0 102322
05:00+6ююв338719 0.0 102336
08:00+5ююв339199 0.0 102341
11:00+10ююз2473100 0.0 1023201
14:00+15юз455717 0.0 10221031
17:00+14зюз35657 0.0 1021282
20:00+10юз228241 0.0 102222
26 октября, вт
вт2623:00+10юз248394 0.0 102395
02:00+8юз22925 0.0 102312
05:00+7ююз229312 0.1 102312
08:00+8юз129179 0.1 102331
11:00+11зюз33845 0.0 1024304
14:00+13зсз3476100 0.8 1024615
17:00+13сз347985 0.4 1023417
20:00+8с1190100 0.4 102510
27 октября, ср
ср2723:00+8ссв119190 0.0 102510
02:00+7всв11925 0.0 102510
05:00+6всв119356 0.0 102510
08:00+6в11935 0.0 102510
11:00+10всв23815 0.0 1025247
14:00+14св34645 0.0 1024645
17:00+13всв24675 0.0 1023295
20:00+8всв22864 0.0 102414